Voltar ao catálogo

SL-8 R/B

AtivoLEO
NORAD 8897·ROCKET BODY·🇷🇺 Russia

Lançado Jun 15, 1976 de Plesetsk Cosmodrome

Loading…

Próximas Passagens (próximas 24 horas)

TLE

AtualizadoSource: Space-Track

Época: Sep 14, 2026, 05:34 UTC

1 08897U 76054J   26257.23214670 -.00000045  00000-0 -28849-3 0  9996
2 08897  74.0010  11.4074 0124783 118.0193 258.1860 12.21068565239944

Acompanhe SL-8 R/B em tempo real com AllMySat

Download on the App Store